TimeEDT,TemperatureF,Dew PointF,Humidity,Sea Level PressureIn,VisibilityMPH,Wind Direction,Wind SpeedMPH,Gust SpeedMPH,PrecipitationIn,Events,Conditions,WindDirDegrees,DateUTC
12:53 AM,57.9,54.0,87,29.95,10.0,SSW,5.8,-,0.00,,Overcast,200,2013-05-08 04:53:00
1:53 AM,57.0,54.0,89,29.94,10.0,SSW,3.5,-,0.00,,Overcast,210,2013-05-08 05:53:00
2:53 AM,57.0,54.0,89,29.93,10.0,SSW,6.9,-,0.00,Rain,Light Rain,200,2013-05-08 06:53:00
3:53 AM,57.0,54.0,89,29.93,10.0,SW,6.9,-,0.00,Rain,Light Rain,220,2013-05-08 07:53:00
4:53 AM,57.0,55.0,93,29.93,10.0,SSW,6.9,-,0.00,Rain,Light Rain,200,2013-05-08 08:53:00
5:53 AM,57.0,54.0,89,29.94,10.0,SSW,5.8,-,0.00,,Overcast,210,2013-05-08 09:53:00
6:53 AM,57.0,54.0,89,29.96,10.0,SW,5.8,-,N/A,,Overcast,220,2013-05-08 10:53:00
7:53 AM,57.0,54.0,89,29.98,10.0,SW,10.4,-,N/A,,Overcast,230,2013-05-08 11:53:00
8:53 AM,59.0,54.0,83,30.00,10.0,SW,11.5,-,N/A,,Mostly Cloudy,220,2013-05-08 12:53:00
9:53 AM,60.1,55.0,83,30.01,10.0,SW,10.4,-,N/A,,Overcast,220,2013-05-08 13:53:00
10:53 AM,62.1,55.9,80,30.01,9.0,SSW,11.5,-,N/A,,Mostly Cloudy,210,2013-05-08 14:53:00
11:53 AM,64.9,55.9,73,30.02,10.0,WSW,8.1,-,N/A,,Overcast,250,2013-05-08 15:53:00
12:53 PM,68.0,57.9,70,30.01,10.0,WSW,8.1,-,N/A,,Mostly Cloudy,240,2013-05-08 16:53:00
1:53 PM,66.9,57.0,70,30.00,10.0,SW,15.0,-,0.00,Rain,Light Rain,230,2013-05-08 17:53:00
2:53 PM,71.1,59.0,66,29.99,10.0,SW,16.1,21.9,0.00,,Mostly Cloudy,220,2013-05-08 18:53:00
3:53 PM,70.0,55.9,61,29.99,10.0,WSW,10.4,-,N/A,,Overcast,240,2013-05-08 19:53:00
4:53 PM,73.0,55.0,53,29.97,10.0,West,4.6,-,N/A,,Mostly Cloudy,260,2013-05-08 20:53:00
5:53 PM,73.0,55.0,53,29.97,10.0,Calm,Calm,-,N/A,,Mostly Cloudy,0,2013-05-08 21:53:00
6:42 PM,66.2,60.8,83,29.99,10.0,South,6.9,-,0.02,Thunderstorm,Thunderstorm,180,2013-05-08 22:42:00
6:53 PM,66.9,61.0,81,29.97,10.0,SSW,4.6,-,0.02,Rain-Thunderstorm,Light Thunderstorms and Rain,200,2013-05-08 22:53:00
7:24 PM,68.0,59.0,73,30.00,10.0,South,3.5,-,0.00,,Mostly Cloudy,180,2013-05-08 23:24:00
7:53 PM,64.9,60.1,84,29.99,10.0,South,4.6,-,0.00,,Mostly Cloudy,180,2013-05-08 23:53:00
8:53 PM,63.0,59.0,87,30.01,10.0,SSW,6.9,-,N/A,Thunderstorm,Thunderstorm,210,2013-05-09 00:53:00
9:10 PM,62.6,59.0,88,30.03,10.0,SSW,6.9,-,N/A,,Mostly Cloudy,210,2013-05-09 01:10:00
9:25 PM,62.6,57.2,82,30.03,10.0,SSW,4.6,-,0.00,Rain-Thunderstorm,Light Thunderstorms and Rain,200,2013-05-09 01:25:00
9:53 PM,64.0,57.9,80,30.04,10.0,North,12.7,-,0.00,Thunderstorm,Thunderstorm,10,2013-05-09 01:53:00
10:20 PM,62.6,57.2,82,30.06,10.0,NE,5.8,-,N/A,,Overcast,40,2013-05-09 02:20:00
10:53 PM,62.1,57.9,86,30.05,10.0,East,5.8,-,N/A,,Scattered Clouds,100,2013-05-09 02:53:00
11:53 PM,60.1,57.0,90,30.05,10.0,Calm,Calm,-,N/A,,Partly Cloudy,0,2013-05-09 03:53:00